Location: Axtheid
(49.6213°N, 11.8205°E)
Time: 02:51:23
(UTC+00:00)

PSLV R/B - Pass Details

Date: 18 February 2020
Orbit: 505 x 578 km, 97.8° (Epoch: 03 April)

Event Time Altitude Azimuth Distance (km) Brightness Sun altitude
Rises 05:14:26 0° 6° (N) 2,625 7.3 -10.9°
Reaches altitude 10° 05:16:38 10° 357° (N) 1,739 6.3 -10.6°
Maximum altitude 05:20:01 33° 292° (WNW) 877 4.3 -10.0°
Drops below altitude 10° 05:23:26 10° 227° (SW) 1,750 6.0 -9.5°
Sets 05:25:39 0° 218° (SW) 2,644 7.0 -9.1°
